Year,Month,Day,Hour,Minute,Value (Times are PST for temperature in C)
2019,03,29,00,00,8.60
2019,03,29,00,01,8.70
2019,03,29,00,02,8.60
2019,03,29,00,03,8.60
2019,03,29,00,04,8.60
2019,03,29,00,05,8.60
2019,03,29,00,06,8.60
2019,03,29,00,07,8.60
2019,03,29,00,08,8.50
2019,03,29,00,09,8.50
2019,03,29,00,10,8.50
2019,03,29,00,11,8.50
2019,03,29,00,12,8.50
2019,03,29,00,13,8.50
2019,03,29,00,14,8.50
2019,03,29,00,15,8.50
2019,03,29,00,16,8.50
2019,03,29,00,17,8.50
2019,03,29,00,18,8.50
2019,03,29,00,19,8.40
2019,03,29,00,20,8.40
2019,03,29,00,21,8.40
2019,03,29,00,22,8.40
2019,03,29,00,23,8.40
2019,03,29,00,24,8.40
2019,03,29,00,25,8.40
2019,03,29,00,26,8.30
2019,03,29,00,27,8.30
2019,03,29,00,28,8.30
2019,03,29,00,29,8.30
2019,03,29,00,30,8.30
2019,03,29,00,31,8.30
2019,03,29,00,32,8.30
2019,03,29,00,33,8.30
2019,03,29,00,34,8.30
2019,03,29,00,35,8.30
2019,03,29,00,36,8.30
2019,03,29,00,37,8.20
2019,03,29,00,38,8.20
2019,03,29,00,39,8.20
2019,03,29,00,40,8.20
2019,03,29,00,41,8.20
2019,03,29,00,42,8.20
2019,03,29,00,43,8.20
2019,03,29,00,44,8.20
2019,03,29,00,45,8.20
2019,03,29,00,46,8.20
2019,03,29,00,47,8.20
2019,03,29,00,48,8.20
2019,03,29,00,49,8.20
2019,03,29,00,50,8.20
2019,03,29,00,51,8.20
2019,03,29,00,52,8.20
2019,03,29,00,53,8.20
2019,03,29,00,54,8.20
2019,03,29,00,55,8.20
2019,03,29,00,56,8.20
2019,03,29,00,57,8.20
2019,03,29,00,58,8.20
2019,03,29,00,59,8.20
2019,03,29,01,00,8.10
2019,03,29,01,01,8.10
2019,03,29,01,02,8.10
2019,03,29,01,03,8.10
2019,03,29,01,04,8.10
2019,03,29,01,05,8.10
2019,03,29,01,06,8.10
2019,03,29,01,07,8.00
2019,03,29,01,08,8.00
2019,03,29,01,09,7.90
2019,03,29,01,10,7.90
2019,03,29,01,11,7.80
2019,03,29,01,12,7.80
2019,03,29,01,13,7.80
2019,03,29,01,14,7.70
2019,03,29,01,15,7.70
2019,03,29,01,16,7.70
2019,03,29,01,17,7.60
2019,03,29,01,18,7.60
2019,03,29,01,19,7.60
2019,03,29,01,20,7.60
2019,03,29,01,21,7.60
2019,03,29,01,22,7.60
2019,03,29,01,23,7.60
2019,03,29,01,24,7.60
2019,03,29,01,25,7.60
2019,03,29,01,26,7.70
2019,03,29,01,27,7.70
2019,03,29,01,28,7.70
2019,03,29,01,29,7.70
2019,03,29,01,30,7.80
2019,03,29,01,31,7.80
2019,03,29,01,32,7.80
2019,03,29,01,33,7.80
2019,03,29,01,34,7.80
2019,03,29,01,35,7.80
2019,03,29,01,36,7.80
2019,03,29,01,37,7.90
2019,03,29,01,38,7.90
2019,03,29,01,39,7.90
2019,03,29,01,40,7.90
2019,03,29,01,41,7.90
2019,03,29,01,42,7.90
2019,03,29,01,43,7.80
2019,03,29,01,44,7.80
2019,03,29,01,45,7.80
2019,03,29,01,46,7.80
2019,03,29,01,47,7.80
2019,03,29,01,48,7.80
2019,03,29,01,49,7.80
2019,03,29,01,50,7.80
2019,03,29,01,51,7.80
2019,03,29,01,52,7.80
2019,03,29,01,53,7.80
2019,03,29,01,54,7.80
2019,03,29,01,55,7.80
2019,03,29,01,56,7.80
2019,03,29,01,57,7.80
2019,03,29,01,58,7.80
2019,03,29,01,59,7.80
2019,03,29,02,00,7.80
2019,03,29,02,01,7.70
2019,03,29,02,02,7.70
2019,03,29,02,03,7.70
2019,03,29,02,04,7.70
2019,03,29,02,05,7.70
2019,03,29,02,06,7.70
2019,03,29,02,07,7.70
2019,03,29,02,08,7.70
2019,03,29,02,09,7.70
2019,03,29,02,10,7.60
2019,03,29,02,11,7.60
2019,03,29,02,12,7.50
2019,03,29,02,13,7.50
2019,03,29,02,14,7.40
2019,03,29,02,15,7.50
2019,03,29,02,16,7.50
2019,03,29,02,17,7.50
2019,03,29,02,18,7.50
2019,03,29,02,19,7.40
2019,03,29,02,20,7.40
2019,03,29,02,21,7.40
2019,03,29,02,22,7.40
2019,03,29,02,23,7.50
2019,03,29,02,24,7.50
2019,03,29,02,25,7.60
2019,03,29,02,26,7.60
2019,03,29,02,27,7.60
2019,03,29,02,28,7.60
2019,03,29,02,29,7.60
2019,03,29,02,30,7.50
2019,03,29,02,31,7.50
2019,03,29,02,32,7.40
2019,03,29,02,33,7.40
2019,03,29,02,34,7.40
2019,03,29,02,35,7.40
2019,03,29,02,36,7.30
2019,03,29,02,37,7.30
2019,03,29,02,38,7.20
2019,03,29,02,39,7.20
2019,03,29,02,40,7.20
2019,03,29,02,41,7.20
2019,03,29,02,42,7.20
2019,03,29,02,43,7.20
2019,03,29,02,44,7.10
2019,03,29,02,45,7.10
2019,03,29,02,46,7.10
2019,03,29,02,47,7.10
2019,03,29,02,48,7.00
2019,03,29,02,49,7.00
2019,03,29,02,50,7.00
2019,03,29,02,51,6.90
2019,03,29,02,52,6.90
2019,03,29,02,53,6.90
2019,03,29,02,54,6.90
2019,03,29,02,55,6.90
2019,03,29,02,56,6.90
2019,03,29,02,57,6.90
2019,03,29,02,58,6.90
2019,03,29,02,59,6.80
2019,03,29,03,00,6.80
2019,03,29,03,01,6.80
2019,03,29,03,02,6.80
2019,03,29,03,03,6.80
2019,03,29,03,04,6.80
2019,03,29,03,05,6.80
2019,03,29,03,06,6.80
2019,03,29,03,07,6.80
2019,03,29,03,08,6.70
2019,03,29,03,09,6.70
2019,03,29,03,10,6.70
2019,03,29,03,11,6.70
2019,03,29,03,12,6.60
2019,03,29,03,13,6.60
2019,03,29,03,14,6.60
2019,03,29,03,15,6.60
2019,03,29,03,16,6.50
2019,03,29,03,17,6.50
2019,03,29,03,18,6.40
2019,03,29,03,19,6.40
2019,03,29,03,20,6.40
2019,03,29,03,21,6.40
2019,03,29,03,22,6.40
2019,03,29,03,23,6.30
2019,03,29,03,24,6.40
2019,03,29,03,25,6.40
2019,03,29,03,26,6.30
2019,03,29,03,27,6.30
2019,03,29,03,28,6.30
2019,03,29,03,29,6.30
2019,03,29,03,30,6.30
2019,03,29,03,31,6.30
2019,03,29,03,32,6.30
2019,03,29,03,33,6.30
2019,03,29,03,34,6.30
2019,03,29,03,35,6.30
2019,03,29,03,36,6.30
2019,03,29,03,37,6.30
2019,03,29,03,38,6.30
2019,03,29,03,39,6.30
2019,03,29,03,40,6.30
2019,03,29,03,41,6.30
2019,03,29,03,42,6.30
2019,03,29,03,43,6.30
2019,03,29,03,44,6.30
2019,03,29,03,45,6.40
2019,03,29,03,46,6.40
2019,03,29,03,47,6.40
2019,03,29,03,48,6.40
2019,03,29,03,49,6.50
2019,03,29,03,50,6.50
2019,03,29,03,51,6.50
2019,03,29,03,52,6.60
2019,03,29,03,53,6.60
2019,03,29,03,54,6.60
2019,03,29,03,55,6.70
2019,03,29,03,56,6.70
2019,03,29,03,57,6.70
2019,03,29,03,58,6.70
2019,03,29,03,59,6.70
2019,03,29,04,00,6.70
2019,03,29,04,01,6.70
2019,03,29,04,02,6.70
2019,03,29,04,03,6.70
2019,03,29,04,04,6.70
2019,03,29,04,05,6.70
2019,03,29,04,06,6.70
2019,03,29,04,07,6.70
2019,03,29,04,08,6.80
2019,03,29,04,09,6.80
2019,03,29,04,10,6.80
2019,03,29,04,11,6.80
2019,03,29,04,12,6.80
2019,03,29,04,13,6.90
2019,03,29,04,14,6.90
2019,03,29,04,15,6.90
2019,03,29,04,16,6.90
2019,03,29,04,17,7.00
2019,03,29,04,18,7.00
2019,03,29,04,19,7.10
2019,03,29,04,20,7.10
2019,03,29,04,21,7.10
2019,03,29,04,22,7.10
2019,03,29,04,23,7.10
2019,03,29,04,24,7.10
2019,03,29,04,25,7.10
2019,03,29,04,26,7.10
2019,03,29,04,27,7.20
2019,03,29,04,28,7.20
2019,03,29,04,29,7.20
2019,03,29,04,30,7.20
2019,03,29,04,31,7.20
2019,03,29,04,32,7.20
2019,03,29,04,33,7.10
2019,03,29,04,34,7.10
2019,03,29,04,35,7.10
2019,03,29,04,36,7.10
2019,03,29,04,37,7.10
2019,03,29,04,38,7.10
2019,03,29,04,39,7.10
2019,03,29,04,40,7.10
2019,03,29,04,41,7.00
2019,03,29,04,42,7.00
2019,03,29,04,43,7.00
2019,03,29,04,44,6.90
2019,03,29,04,45,6.90
2019,03,29,04,46,6.90
2019,03,29,04,47,6.90
2019,03,29,04,48,6.80
2019,03,29,04,49,6.80
2019,03,29,04,50,6.80
2019,03,29,04,51,6.80
2019,03,29,04,52,6.70
2019,03,29,04,53,6.70
2019,03,29,04,54,6.70
2019,03,29,04,55,6.70
2019,03,29,04,56,6.70
2019,03,29,04,57,6.70
2019,03,29,04,58,6.70
2019,03,29,04,59,6.70
2019,03,29,05,00,6.70
2019,03,29,05,01,6.70
2019,03,29,05,02,6.70
2019,03,29,05,03,6.70
2019,03,29,05,04,6.70
2019,03,29,05,05,6.70
2019,03,29,05,06,6.70
2019,03,29,05,07,6.70
2019,03,29,05,08,6.70
2019,03,29,05,09,6.70
2019,03,29,05,10,6.70
2019,03,29,05,11,6.70
2019,03,29,05,12,6.70
2019,03,29,05,13,6.70
2019,03,29,05,14,6.70
2019,03,29,05,15,6.70
2019,03,29,05,16,6.70
2019,03,29,05,17,6.70
2019,03,29,05,18,6.70
2019,03,29,05,19,6.70
2019,03,29,05,20,6.70
2019,03,29,05,21,6.70
2019,03,29,05,22,6.70
2019,03,29,05,23,6.70
2019,03,29,05,24,6.70
2019,03,29,05,25,6.70
2019,03,29,05,26,6.70
2019,03,29,05,27,6.70
2019,03,29,05,28,6.70
2019,03,29,05,29,6.70
2019,03,29,05,30,6.70
2019,03,29,05,31,6.70
2019,03,29,05,32,6.70
2019,03,29,05,33,6.70
2019,03,29,05,34,6.70
2019,03,29,05,35,6.70
2019,03,29,05,36,6.70
2019,03,29,05,37,6.80
2019,03,29,05,38,6.80
2019,03,29,05,39,6.80
2019,03,29,05,40,6.80
2019,03,29,05,41,6.80
2019,03,29,05,42,6.90
2019,03,29,05,43,6.90
2019,03,29,05,44,6.90
2019,03,29,05,45,7.00
2019,03,29,05,46,7.00
2019,03,29,05,47,7.00
2019,03,29,05,48,7.00
2019,03,29,05,49,7.00
2019,03,29,05,50,7.00
2019,03,29,05,51,6.90
2019,03,29,05,52,6.90
2019,03,29,05,53,6.90
2019,03,29,05,54,6.80
2019,03,29,05,55,6.80
2019,03,29,05,56,6.80
2019,03,29,05,57,6.70
2019,03,29,05,58,6.70
2019,03,29,05,59,6.70
2019,03,29,06,00,6.60
2019,03,29,06,01,6.60
2019,03,29,06,02,6.60
2019,03,29,06,03,6.50
2019,03,29,06,04,6.50
2019,03,29,06,05,6.40
2019,03,29,06,06,6.40
2019,03,29,06,07,6.40
2019,03,29,06,08,6.40
2019,03,29,06,09,6.40
2019,03,29,06,10,6.40
2019,03,29,06,11,6.40
2019,03,29,06,12,6.40
2019,03,29,06,13,6.40
2019,03,29,06,14,6.50
2019,03,29,06,15,6.50
2019,03,29,06,16,6.50
2019,03,29,06,17,6.60
2019,03,29,06,18,6.60
2019,03,29,06,19,6.60
2019,03,29,06,20,6.60
2019,03,29,06,21,6.60
2019,03,29,06,22,6.50
2019,03,29,06,23,6.60
2019,03,29,06,24,6.60
2019,03,29,06,25,6.60
2019,03,29,06,26,6.60
2019,03,29,06,27,6.60
2019,03,29,06,28,6.60
2019,03,29,06,29,6.60
2019,03,29,06,30,6.60
2019,03,29,06,31,6.70
2019,03,29,06,32,6.70
2019,03,29,06,33,6.70
2019,03,29,06,34,6.70
2019,03,29,06,35,6.70
2019,03,29,06,36,6.70
2019,03,29,06,37,6.70
2019,03,29,06,38,6.70
2019,03,29,06,39,6.70
2019,03,29,06,40,6.70
2019,03,29,06,41,6.70
2019,03,29,06,42,6.70
2019,03,29,06,43,6.70
2019,03,29,06,44,6.70
2019,03,29,06,45,6.70
2019,03,29,06,46,6.70
2019,03,29,06,47,6.70
2019,03,29,06,48,6.70
2019,03,29,06,49,6.70
2019,03,29,06,50,6.70
2019,03,29,06,51,6.70
2019,03,29,06,52,6.70
2019,03,29,06,53,6.70
2019,03,29,06,54,6.70
2019,03,29,06,55,6.70
2019,03,29,06,56,6.70
2019,03,29,06,57,6.70
2019,03,29,06,58,6.70
2019,03,29,06,59,6.70
2019,03,29,07,00,6.70
2019,03,29,07,01,6.70
2019,03,29,07,02,6.70
2019,03,29,07,03,6.70
2019,03,29,07,04,6.70
2019,03,29,07,05,6.70
2019,03,29,07,06,6.70
2019,03,29,07,07,6.70
2019,03,29,07,08,6.70
2019,03,29,07,09,6.70
2019,03,29,07,10,6.70
2019,03,29,07,11,6.70
2019,03,29,07,12,6.70
2019,03,29,07,13,6.70
2019,03,29,07,14,6.70
2019,03,29,07,15,6.80
2019,03,29,07,16,6.80
2019,03,29,07,17,6.80
2019,03,29,07,18,6.70
2019,03,29,07,19,6.70
2019,03,29,07,20,6.70
2019,03,29,07,21,6.70
2019,03,29,07,22,6.70
2019,03,29,07,23,6.70
2019,03,29,07,24,6.70
2019,03,29,07,25,6.70
2019,03,29,07,26,6.60
2019,03,29,07,27,6.60
2019,03,29,07,28,6.60
2019,03,29,07,29,6.60
2019,03,29,07,30,6.60
2019,03,29,07,31,6.50
2019,03,29,07,32,6.50
2019,03,29,07,33,6.50
2019,03,29,07,34,6.40
2019,03,29,07,35,6.40
2019,03,29,07,36,6.40
2019,03,29,07,37,6.40
2019,03,29,07,38,6.40
2019,03,29,07,39,6.40
2019,03,29,07,40,6.40
2019,03,29,07,41,6.40
2019,03,29,07,42,6.40
2019,03,29,07,43,6.50
2019,03,29,07,44,6.50
2019,03,29,07,45,6.60
2019,03,29,07,46,6.60
2019,03,29,07,47,6.60
2019,03,29,07,48,6.70
2019,03,29,07,49,6.70
2019,03,29,07,50,6.80
2019,03,29,07,51,6.80
2019,03,29,07,52,6.90
2019,03,29,07,53,7.00
2019,03,29,07,54,7.10
2019,03,29,07,55,7.20
2019,03,29,07,56,7.20
2019,03,29,07,57,7.30
2019,03,29,07,58,7.30
2019,03,29,07,59,7.40
2019,03,29,08,00,7.50
2019,03,29,08,01,7.50
2019,03,29,08,02,7.50
2019,03,29,08,03,7.60
2019,03,29,08,04,7.60
2019,03,29,08,05,7.70
2019,03,29,08,06,7.70
2019,03,29,08,07,7.70
2019,03,29,08,08,7.70
2019,03,29,08,09,7.70
2019,03,29,08,10,7.70
2019,03,29,08,11,7.80
2019,03,29,08,12,7.80
2019,03,29,08,13,7.90
2019,03,29,08,14,8.00
2019,03,29,08,15,8.10
2019,03,29,08,16,8.10
2019,03,29,08,17,8.20
2019,03,29,08,18,8.30
2019,03,29,08,19,8.40
2019,03,29,08,20,8.50
2019,03,29,08,21,8.60
2019,03,29,08,22,8.60
2019,03,29,08,23,8.70
2019,03,29,08,24,8.70
2019,03,29,08,25,8.70
2019,03,29,08,26,8.70
2019,03,29,08,27,8.80
2019,03,29,08,28,8.80
2019,03,29,08,29,8.80
2019,03,29,08,30,8.80
2019,03,29,08,31,8.90
2019,03,29,08,32,8.90
2019,03,29,08,33,9.00
2019,03,29,08,34,9.10
2019,03,29,08,35,9.10
2019,03,29,08,36,9.20
2019,03,29,08,37,9.30
2019,03,29,08,38,9.30
2019,03,29,08,39,9.40
2019,03,29,08,40,9.50
2019,03,29,08,41,9.60
2019,03,29,08,42,9.60
2019,03,29,08,43,9.70
2019,03,29,08,44,9.70
2019,03,29,08,45,9.80
2019,03,29,08,46,9.80
2019,03,29,08,47,9.90
2019,03,29,08,48,9.90
2019,03,29,08,49,10.00
2019,03,29,08,50,10.00
2019,03,29,08,51,10.10
2019,03,29,08,52,10.10
2019,03,29,08,53,10.20
2019,03,29,08,54,10.20
2019,03,29,08,55,10.20
2019,03,29,08,56,10.20
2019,03,29,08,57,10.30
2019,03,29,08,58,10.30
2019,03,29,08,59,10.30
2019,03,29,09,00,10.40
2019,03,29,09,01,10.40
2019,03,29,09,02,10.40
2019,03,29,09,03,10.50
2019,03,29,09,04,10.50
2019,03,29,09,05,10.50
2019,03,29,09,06,10.60
2019,03,29,09,07,10.60
2019,03,29,09,08,10.70
2019,03,29,09,09,10.70
2019,03,29,09,10,10.80
2019,03,29,09,11,10.80
2019,03,29,09,12,10.90
2019,03,29,09,13,11.00
2019,03,29,09,14,11.00
2019,03,29,09,15,11.10
2019,03,29,09,16,11.10
2019,03,29,09,17,11.10
2019,03,29,09,18,11.20
2019,03,29,09,19,11.30
2019,03,29,09,20,11.30
2019,03,29,09,21,11.30
2019,03,29,09,22,11.30
2019,03,29,09,23,11.30
2019,03,29,09,24,11.40
2019,03,29,09,25,11.40
2019,03,29,09,26,11.40
2019,03,29,09,27,11.50
2019,03,29,09,28,11.60
2019,03,29,09,29,11.60
2019,03,29,09,30,11.60
2019,03,29,09,31,11.60
2019,03,29,09,32,11.60
2019,03,29,09,33,11.50
2019,03,29,09,34,11.40
2019,03,29,09,35,11.40
2019,03,29,09,36,11.40
2019,03,29,09,37,11.30
2019,03,29,09,38,11.30
2019,03,29,09,39,11.30
2019,03,29,09,40,11.30
2019,03,29,09,41,11.40
2019,03,29,09,42,11.40
2019,03,29,09,43,11.40
2019,03,29,09,44,11.40
2019,03,29,09,45,11.40
2019,03,29,09,46,11.40
2019,03,29,09,47,11.40
2019,03,29,09,48,11.40
2019,03,29,09,49,11.40
2019,03,29,09,50,11.40
2019,03,29,09,51,11.40
2019,03,29,09,52,11.50
2019,03,29,09,53,11.60
2019,03,29,09,54,11.60
2019,03,29,09,55,11.80
2019,03,29,09,56,11.90
2019,03,29,09,57,12.00
2019,03,29,09,58,12.10
2019,03,29,09,59,12.20
2019,03,29,10,00,12.20
2019,03,29,10,01,12.20
2019,03,29,10,02,12.30
2019,03,29,10,03,12.40
2019,03,29,10,04,12.50
2019,03,29,10,05,12.60
2019,03,29,10,06,12.70
2019,03,29,10,07,12.80
2019,03,29,10,08,12.80
2019,03,29,10,09,12.80
2019,03,29,10,10,12.70
2019,03,29,10,11,12.60
2019,03,29,10,12,12.50
2019,03,29,10,13,12.40
2019,03,29,10,14,12.30
2019,03,29,10,15,12.10
2019,03,29,10,16,11.90
2019,03,29,10,17,11.80
2019,03,29,10,18,11.60
2019,03,29,10,19,11.50
2019,03,29,10,20,11.40
2019,03,29,10,21,11.40
2019,03,29,10,22,11.40
2019,03,29,10,23,11.30
2019,03,29,10,24,11.30
2019,03,29,10,25,11.40
2019,03,29,10,26,11.40
2019,03,29,10,27,11.30
2019,03,29,10,28,11.30
2019,03,29,10,29,11.40
2019,03,29,10,30,11.40
2019,03,29,10,31,11.40
2019,03,29,10,32,11.50
2019,03,29,10,33,11.50
2019,03,29,10,34,11.50
2019,03,29,10,35,11.50
2019,03,29,10,36,11.50
2019,03,29,10,37,11.50
2019,03,29,10,38,11.50
2019,03,29,10,39,11.60
2019,03,29,10,40,11.60
2019,03,29,10,41,11.60
2019,03,29,10,42,11.50
2019,03,29,10,43,11.50
2019,03,29,10,44,11.40
2019,03,29,10,45,11.30
2019,03,29,10,46,11.30
2019,03,29,10,47,11.20
2019,03,29,10,48,11.20
2019,03,29,10,49,11.20
2019,03,29,10,50,11.20
2019,03,29,10,51,11.30
2019,03,29,10,52,11.30
2019,03,29,10,53,11.30
2019,03,29,10,54,11.30
2019,03,29,10,55,11.40
2019,03,29,10,56,11.40
2019,03,29,10,57,11.30
2019,03,29,10,58,11.30
2019,03,29,10,59,11.20
2019,03,29,11,00,11.20
2019,03,29,11,01,11.20
2019,03,29,11,02,11.20
2019,03,29,11,03,11.20
2019,03,29,11,04,11.20
2019,03,29,11,05,11.30
2019,03,29,11,06,11.30
2019,03,29,11,07,11.30
2019,03,29,11,08,11.40
2019,03,29,11,09,11.40
2019,03,29,11,10,11.40
2019,03,29,11,11,11.40
2019,03,29,11,12,11.40
2019,03,29,11,13,11.40
2019,03,29,11,14,11.50
2019,03,29,11,15,11.50
2019,03,29,11,16,11.60
2019,03,29,11,17,11.60
2019,03,29,11,18,11.60
2019,03,29,11,19,11.70
2019,03,29,11,20,11.70
2019,03,29,11,21,11.70
2019,03,29,11,22,11.70
2019,03,29,11,23,11.70
2019,03,29,11,24,11.80
2019,03,29,11,25,11.80
2019,03,29,11,26,11.90
2019,03,29,11,27,12.00
2019,03,29,11,28,12.10
2019,03,29,11,29,12.20
2019,03,29,11,30,12.20
2019,03,29,11,31,12.30
2019,03,29,11,32,12.40
2019,03,29,11,33,12.40
2019,03,29,11,34,12.50
2019,03,29,11,35,12.60
2019,03,29,11,36,12.60
2019,03,29,11,37,12.70
2019,03,29,11,38,12.70
2019,03,29,11,39,12.70
2019,03,29,11,40,12.80
2019,03,29,11,41,12.70
2019,03,29,11,42,12.70
2019,03,29,11,43,12.60
2019,03,29,11,44,12.50
2019,03,29,11,45,12.40
2019,03,29,11,46,12.30
2019,03,29,11,47,12.30
2019,03,29,11,48,12.30
2019,03,29,11,49,12.20
2019,03,29,11,50,12.20
2019,03,29,11,51,12.20
2019,03,29,11,52,12.10
2019,03,29,11,53,12.10
2019,03,29,11,54,12.20
2019,03,29,11,55,12.20
2019,03,29,11,56,12.20
2019,03,29,11,57,12.30
2019,03,29,11,58,12.30
2019,03,29,11,59,12.30
2019,03,29,12,00,12.40
2019,03,29,12,01,12.40
2019,03,29,12,02,12.40
2019,03,29,12,03,12.40
2019,03,29,12,04,12.60
2019,03,29,12,05,12.70
2019,03,29,12,06,12.70
2019,03,29,12,07,12.70
2019,03,29,12,08,12.70
2019,03,29,12,09,12.70
2019,03,29,12,10,12.70
2019,03,29,12,11,12.80
2019,03,29,12,12,12.80
2019,03,29,12,13,12.90
2019,03,29,12,14,12.90
2019,03,29,12,15,13.00
2019,03,29,12,16,13.10
2019,03,29,12,17,13.10
2019,03,29,12,18,13.10
2019,03,29,12,19,13.10
2019,03,29,12,20,13.20
2019,03,29,12,21,13.30
2019,03,29,12,22,13.40
2019,03,29,12,23,13.50
2019,03,29,12,24,13.50
2019,03,29,12,25,13.60
2019,03,29,12,26,13.60
2019,03,29,12,27,13.70
2019,03,29,12,28,13.70
2019,03,29,12,29,13.70
2019,03,29,12,30,13.70
2019,03,29,12,31,13.70
2019,03,29,12,32,13.70
2019,03,29,12,33,13.70
2019,03,29,12,34,13.70
2019,03,29,12,35,13.80
2019,03,29,12,36,13.80
2019,03,29,12,37,13.90
2019,03,29,12,38,13.90
2019,03,29,12,39,13.90
2019,03,29,12,40,13.90
2019,03,29,12,41,13.90
2019,03,29,12,42,13.90
2019,03,29,12,43,13.80
2019,03,29,12,44,13.80
2019,03,29,12,45,13.80
2019,03,29,12,46,13.80
2019,03,29,12,47,13.90
2019,03,29,12,48,13.90
2019,03,29,12,49,14.00
2019,03,29,12,50,14.10
2019,03,29,12,51,14.10
2019,03,29,12,52,14.20
2019,03,29,12,53,14.20
2019,03,29,12,54,14.20
2019,03,29,12,55,14.20
2019,03,29,12,56,14.20
2019,03,29,12,57,14.20
2019,03,29,12,58,14.30
2019,03,29,12,59,14.30
2019,03,29,13,00,14.30
2019,03,29,13,01,14.30
2019,03,29,13,02,14.30
2019,03,29,13,03,14.30
2019,03,29,13,04,14.30
2019,03,29,13,05,14.30
2019,03,29,13,06,14.40
2019,03,29,13,07,14.40
2019,03,29,13,08,14.40
2019,03,29,13,09,14.40
2019,03,29,13,10,14.30
2019,03,29,13,11,14.30
2019,03,29,13,12,14.30
2019,03,29,13,13,14.40
2019,03,29,13,14,14.40
2019,03,29,13,15,14.50
2019,03,29,13,16,14.60
2019,03,29,13,17,14.70
2019,03,29,13,18,14.80
2019,03,29,13,19,15.00
2019,03,29,13,20,15.00
2019,03,29,13,21,15.00
2019,03,29,13,22,15.00
2019,03,29,13,23,14.90
2019,03,29,13,24,14.80
2019,03,29,13,25,14.70
2019,03,29,13,26,14.70
2019,03,29,13,27,14.70
2019,03,29,13,28,14.70
2019,03,29,13,29,14.60
2019,03,29,13,30,14.60
2019,03,29,13,31,14.60
2019,03,29,13,32,14.60
2019,03,29,13,33,14.60
2019,03,29,13,34,14.60
2019,03,29,13,35,14.60
2019,03,29,13,36,14.60
2019,03,29,13,37,14.70
2019,03,29,13,38,14.70
2019,03,29,13,39,14.70
2019,03,29,13,40,14.70
2019,03,29,13,41,14.70
2019,03,29,13,42,14.70
2019,03,29,13,43,14.60
2019,03,29,13,44,14.60
2019,03,29,13,45,14.60
2019,03,29,13,46,14.60
2019,03,29,13,47,14.60
2019,03,29,13,48,14.60
2019,03,29,13,49,14.60
2019,03,29,13,50,14.60
2019,03,29,13,51,14.70
2019,03,29,13,52,14.70
2019,03,29,13,53,14.70
2019,03,29,13,54,14.80
2019,03,29,13,55,14.90
2019,03,29,13,56,15.00
2019,03,29,13,57,15.00
2019,03,29,13,58,15.00
2019,03,29,13,59,15.00
2019,03,29,14,00,15.00
2019,03,29,14,01,14.90
2019,03,29,14,02,14.90
2019,03,29,14,03,14.90
2019,03,29,14,04,14.90
2019,03,29,14,05,14.80
2019,03,29,14,06,14.90
2019,03,29,14,07,15.00
2019,03,29,14,08,15.00
2019,03,29,14,09,15.00
2019,03,29,14,10,15.00
2019,03,29,14,11,15.00
2019,03,29,14,12,15.00
2019,03,29,14,13,15.00
2019,03,29,14,14,15.00
2019,03,29,14,15,15.00
2019,03,29,14,16,15.00
2019,03,29,14,17,15.00
2019,03,29,14,18,15.00
2019,03,29,14,19,15.00
2019,03,29,14,20,15.10
2019,03,29,14,21,15.20
2019,03,29,14,22,15.20
2019,03,29,14,23,15.20
2019,03,29,14,24,15.20
2019,03,29,14,25,15.20
2019,03,29,14,26,15.20
2019,03,29,14,27,15.20
2019,03,29,14,28,15.20
2019,03,29,14,29,15.10
2019,03,29,14,30,15.10
2019,03,29,14,31,15.00
2019,03,29,14,32,15.00
2019,03,29,14,33,15.00
2019,03,29,14,34,15.00
2019,03,29,14,35,15.10
2019,03,29,14,36,15.10
2019,03,29,14,37,15.20
2019,03,29,14,38,15.20
2019,03,29,14,39,15.20
2019,03,29,14,40,15.10
2019,03,29,14,41,15.10
2019,03,29,14,42,15.10
2019,03,29,14,43,15.10
2019,03,29,14,44,15.00
2019,03,29,14,45,15.00
2019,03,29,14,46,15.00
2019,03,29,14,47,15.00
2019,03,29,14,48,15.00
2019,03,29,14,49,15.00
2019,03,29,14,50,15.00
2019,03,29,14,51,15.00
2019,03,29,14,52,15.00
2019,03,29,14,53,15.00
2019,03,29,14,54,15.00
2019,03,29,14,55,15.00
2019,03,29,14,56,15.00
2019,03,29,14,57,15.00
2019,03,29,14,58,15.00
2019,03,29,14,59,15.00
2019,03,29,15,00,15.00
2019,03,29,15,01,15.10
2019,03,29,15,02,15.10
2019,03,29,15,03,15.20
2019,03,29,15,04,15.30
2019,03,29,15,05,15.30
2019,03,29,15,06,15.30
2019,03,29,15,07,15.30
2019,03,29,15,08,15.30
2019,03,29,15,09,15.20
2019,03,29,15,10,15.20
2019,03,29,15,11,15.10
2019,03,29,15,12,15.10
2019,03,29,15,13,15.00
2019,03,29,15,14,15.00
2019,03,29,15,15,15.00
2019,03,29,15,16,15.00
2019,03,29,15,17,15.10
2019,03,29,15,18,15.20
2019,03,29,15,19,15.20
2019,03,29,15,20,15.30
2019,03,29,15,21,15.40
2019,03,29,15,22,15.40
2019,03,29,15,23,15.50
2019,03,29,15,24,15.60
2019,03,29,15,25,15.70
2019,03,29,15,26,15.70
2019,03,29,15,27,15.80
2019,03,29,15,28,15.80
2019,03,29,15,29,15.90
2019,03,29,15,30,15.90
2019,03,29,15,31,16.00
2019,03,29,15,32,16.00
2019,03,29,15,33,16.10
2019,03,29,15,34,16.10
2019,03,29,15,35,16.10
2019,03,29,15,36,16.00
2019,03,29,15,37,16.00
2019,03,29,15,38,16.00
2019,03,29,15,39,16.00
2019,03,29,15,40,16.00
2019,03,29,15,41,16.10
2019,03,29,15,42,16.10
2019,03,29,15,43,16.10
2019,03,29,15,44,16.10
2019,03,29,15,45,16.10
2019,03,29,15,46,16.10
2019,03,29,15,47,16.10
2019,03,29,15,48,16.00
2019,03,29,15,49,15.90
2019,03,29,15,50,15.90
2019,03,29,15,51,15.90
2019,03,29,15,52,15.90
2019,03,29,15,53,16.00
2019,03,29,15,54,16.00
2019,03,29,15,55,16.00
2019,03,29,15,56,16.10
2019,03,29,15,57,16.10
2019,03,29,15,58,16.20
2019,03,29,15,59,16.20
2019,03,29,16,00,16.20
2019,03,29,16,01,16.20
2019,03,29,16,02,16.20
2019,03,29,16,03,16.20
2019,03,29,16,04,16.20
2019,03,29,16,05,16.20
2019,03,29,16,06,16.20
2019,03,29,16,07,16.20
2019,03,29,16,08,16.20
2019,03,29,16,09,16.20
2019,03,29,16,10,16.20
2019,03,29,16,11,16.30
2019,03,29,16,12,16.30
2019,03,29,16,13,16.40
2019,03,29,16,14,16.40
2019,03,29,16,15,16.40
2019,03,29,16,16,16.40
2019,03,29,16,17,16.40
2019,03,29,16,18,16.40
2019,03,29,16,19,16.40
2019,03,29,16,20,16.30
2019,03,29,16,21,16.30
2019,03,29,16,22,16.20
2019,03,29,16,23,16.20
2019,03,29,16,24,16.10
2019,03,29,16,25,16.00
2019,03,29,16,26,16.00
2019,03,29,16,27,16.00
2019,03,29,16,28,16.00
2019,03,29,16,29,16.00
2019,03,29,16,30,16.10
2019,03,29,16,31,16.10
2019,03,29,16,32,16.10
2019,03,29,16,33,16.20
2019,03,29,16,34,16.20
2019,03,29,16,35,16.20
2019,03,29,16,36,16.20
2019,03,29,16,37,16.20
2019,03,29,16,38,16.20
2019,03,29,16,39,16.20
2019,03,29,16,40,16.10
2019,03,29,16,41,16.10
2019,03,29,16,42,16.00
2019,03,29,16,43,15.90
2019,03,29,16,44,15.80
2019,03,29,16,45,15.80
2019,03,29,16,46,15.80
2019,03,29,16,47,15.80
2019,03,29,16,48,15.80
2019,03,29,16,49,15.80
2019,03,29,16,50,15.90
2019,03,29,16,51,15.90
2019,03,29,16,52,16.00
2019,03,29,16,53,16.00
2019,03,29,16,54,16.10
2019,03,29,16,55,16.20
2019,03,29,16,56,16.20
2019,03,29,16,57,16.30
2019,03,29,16,58,16.40
2019,03,29,16,59,16.50
2019,03,29,17,00,16.60
2019,03,29,17,01,16.70
2019,03,29,17,02,16.70
2019,03,29,17,03,16.70
2019,03,29,17,04,16.70
2019,03,29,17,05,16.70
2019,03,29,17,06,16.80
2019,03,29,17,07,16.90
2019,03,29,17,08,17.00
2019,03,29,17,09,17.00
2019,03,29,17,10,17.10
2019,03,29,17,11,17.10
2019,03,29,17,12,17.10
2019,03,29,17,13,17.10
2019,03,29,17,14,17.10
2019,03,29,17,15,17.10
2019,03,29,17,16,17.10
2019,03,29,17,17,17.10
2019,03,29,17,18,17.10
2019,03,29,17,19,17.10
2019,03,29,17,20,17.10
2019,03,29,17,21,17.10
2019,03,29,17,22,17.10
2019,03,29,17,23,17.10
2019,03,29,17,24,17.10
2019,03,29,17,25,17.10
2019,03,29,17,26,17.10
2019,03,29,17,27,17.20
2019,03,29,17,28,17.20
2019,03,29,17,29,17.20
2019,03,29,17,30,17.30
2019,03,29,17,31,17.30
2019,03,29,17,32,17.30
2019,03,29,17,33,17.30
2019,03,29,17,34,17.30
2019,03,29,17,35,17.30
2019,03,29,17,36,17.30
2019,03,29,17,37,17.30
2019,03,29,17,38,17.30
2019,03,29,17,39,17.30
2019,03,29,17,40,17.30
2019,03,29,17,41,17.30
2019,03,29,17,42,17.30